Location: Gwatt
(46.7204°N, 7.6223°E)
Time: 14:01:54
(UTC+00:00)

S-56A Canister/Altair - Pass Details

Date: 24 January 2021
Orbit: 632 x 2501 km, 38.9° (Epoch: 28 February)

Event Time Altitude Azimuth Distance (km) Brightness Sun altitude
Rises 07:09:25 0° 264° (W) 3,171 10.2 0.2°
Reaches altitude 10° 07:12:24 10° 243° (WSW) 2,432 9.8 0.6°
Maximum altitude 07:16:00 17° 203° (SSW) 2,222 10.0 1.2°
Drops below altitude 10° 07:20:23 10° 165° (SSE) 3,064 11.4 1.8°
Sets 07:24:51 0° 148° (SSE) 4,421 12.7 2.5°
